| time (UTC) | temp F | wind direction | speed MPH | gust MPH | rain 1hr in | rain 24hr in | rain mn in | humidity % | barometer mb |
| 20260902023005 | 77 | 331 | 1.0 | 5.0 | 0.00 | 0.00 | 0.00 | 53 | 1021.9 |
| 20260902021502 | 79 | 298 | 1.0 | 4.0 | 0.00 | 0.00 | 0.00 | 52 | 1022.3 |
| 20260902020115 | 76 | 331 | 1.0 | 5.0 | 0.00 | 0.00 | 0.00 | 51 | 1022.6 |
| 20260902014556 | 77 | 178 | 1.0 | 6.0 | 0.00 | 0.00 | 0.00 | 55 | 1023.0 |
| 20260902013153 | 74 | 344 | 3.0 | 7.0 | 0.00 | 0.00 | 0.00 | 56 | 1023.4 |
| 20260902011547 | 75 | 314 | 3.0 | 6.0 | 0.00 | 0.00 | 0.00 | 59 | 1023.8 |
| 20260902010043 | 73 | 295 | 1.0 | 5.0 | 0.00 | 0.00 | 0.00 | 60 | 1024.3 |
| 20260902004539 | 72 | 8 | 3.0 | 9.0 | 0.00 | 0.00 | 0.00 | 61 | 1024.7 |
| 20260902003037 | 71 | 13 | 3.0 | 9.0 | 0.00 | 0.00 | 0.00 | 61 | 1024.9 |
| 20260902001534 | 70 | 339 | 3.0 | 7.0 | 0.00 | 0.00 | 0.00 | 64 | 1025.1 |
| 20260901234505 | 67 | 331 | 1.0 | 4.0 | 0.00 | 0.00 | 0.00 | 71 | 1025.6 |
| 20260901233002 | 67 | 135 | 1.0 | 5.0 | 0.00 | 0.00 | 0.00 | 72 | 1025.6 |
| 20260901231600 | 65 | 321 | 1.0 | 4.0 | 0.00 | 0.00 | 0.00 | 74 | 1025.8 |
| 20260901230105 | 64 | 89 | 1.0 | 5.0 | 0.00 | 0.00 | 0.00 | 79 | 1025.8 |
| 20260901224551 | 62 | 178 | 1.0 | 3.0 | 0.00 | 0.00 | 0.00 | 83 | 1025.9 |
| 20260901223058 | 61 | 46 | 1.0 | 4.0 | 0.00 | 0.00 | 0.00 | 87 | 1026.0 |
| 20260901221542 | 59 | 286 | 2.0 | 4.0 | 0.00 | 0.00 | 0.00 | 89 | 1026.0 |
| 20260901220058 | 57 | 306 | 1.0 | 4.0 | 0.00 | 0.00 | 0.00 | 90 | 1026.0 |
| 20260901214539 | 56 | 305 | 1.0 | 3.0 | 0.00 | 0.00 | 0.00 | 91 | 1025.8 |
| 20260901213045 | 55 | 145 | 1.0 | 4.0 | 0.00 | 0.00 | 0.00 | 92 | 1025.6 |
| 20260901210033 | 52 | 314 | 1.0 | 2.0 | 0.00 | 0.00 | 0.00 | 89 | 1025.2 |
| 20260901204536 | 53 | 286 | 1.0 | 2.0 | 0.00 | 0.00 | 0.00 | 89 | 1025.0 |
| 20260901203035 | 53 | 324 | 0.0 | 3.0 | 0.00 | 0.00 | 0.00 | 89 | 1025.0 |
| 20260901201525 | 53 | 178 | 0.0 | 2.0 | 0.00 | 0.00 | 0.00 | 89 | 1025.0 |
| 20260901200123 | 53 | 178 | 1.0 | 3.0 | 0.00 | 0.00 | 0.00 | 89 | 1024.9 |
| 20260901194620 | 53 | 127 | 0.0 | 2.0 | 0.00 | 0.00 | 0.00 | 89 | 1024.8 |
| 20260901193020 | 54 | 28 | 0.0 | 2.0 | 0.00 | 0.00 | 0.00 | 89 | 1024.8 |
| 20260901191620 | 54 | 117 | 0.0 | 2.0 | 0.00 | 0.00 | 0.00 | 89 | 1024.6 |
| 20260901190013 | 54 | 197 | 1.0 | 3.0 | 0.00 | 0.00 | 0.00 | 88 | 1024.5 |
| 20260901184526 | 55 | 135 | 0.0 | 2.0 | 0.00 | 0.00 | 0.00 | 89 | 1024.4 |
| 20260901183008 | 55 | 1 | 0.0 | 2.0 | 0.00 | 0.00 | 0.00 | 89 | 1024.4 |
| 20260901181516 | 56 | 277 | 1.0 | 4.0 | 0.00 | 0.00 | 0.00 | 89 | 1024.4 |
| 20260901180004 | 56 | 283 | 1.0 | 3.0 | 0.00 | 0.00 | 0.00 | 89 | 1024.3 |
| 20260901174602 | 56 | 284 | 2.0 | 4.0 | 0.00 | 0.00 | 0.00 | 89 | 1024.3 |
| 20260901174505 | 56 | 269 | 2.0 | 4.0 | 0.00 | 0.00 | 0.00 | 89 | 1024.2 |
| 20260901173058 | 56 | 291 | 3.0 | 5.0 | 0.00 | 0.00 | 0.00 | 88 | 1024.3 |
| 20260901171557 | 56 | 281 | 2.0 | 4.0 | 0.00 | 0.00 | 0.00 | 88 | 1024.6 |
| 20260901170023 | 56 | 306 | 2.0 | 6.0 | 0.00 | 0.00 | 0.00 | 88 | 1024.8 |
| 20260901164524 | 56 | 290 | 1.0 | 4.0 | 0.00 | 0.00 | 0.00 | 88 | 1024.9 |
| 20260901163021 | 56 | 295 | 1.0 | 2.0 | 0.00 | 0.00 | 0.00 | 87 | 1025.1 |
| 20260901161520 | 56 | 306 | 1.0 | 3.0 | 0.00 | 0.00 | 0.00 | 87 | 1025.2 |
| 20260901160021 | 56 | 347 | 0.0 | 4.0 | 0.00 | 0.00 | 0.00 | 87 | 1025.2 |
| 20260901154509 | 56 | 245 | 0.0 | 4.0 | 0.00 | 0.00 | 0.00 | 86 | 1025.4 |
| 20260901153014 | 57 | 286 | 1.0 | 3.0 | 0.00 | 0.00 | 0.00 | 86 | 1025.3 |
| 20260901151504 | 57 | 347 | 1.0 | 3.0 | 0.00 | 0.00 | 0.00 | 86 | 1025.4 |
| 20260901150005 | 58 | 300 | 2.0 | 5.0 | 0.00 | 0.00 | 0.00 | 86 | 1025.4 |
| 20260901144558 | 58 | 303 | 1.0 | 3.0 | 0.00 | 0.00 | 0.00 | 86 | 1025.6 |
| 20260901143120 | 58 | 298 | 2.0 | 3.0 | 0.00 | 0.00 | 0.00 | 87 | 1025.7 |
| 20260901141554 | 59 | 347 | 1.0 | 3.0 | 0.00 | 0.00 | 0.00 | 87 | 1025.8 |
| 20260901140054 | 59 | 286 | 2.0 | 4.0 | 0.00 | 0.00 | 0.00 | 87 | 1026.0 |
| 20260901134547 | 59 | 240 | 2.0 | 6.0 | 0.00 | 0.00 | 0.00 | 87 | 1026.1 |
| 20260901133048 | 59 | 293 | 3.0 | 7.0 | 0.00 | 0.00 | 0.00 | 87 | 1026.1 |
| 20260901131551 | 59 | 298 | 4.0 | 7.0 | 0.00 | 0.00 | 0.00 | 86 | 1026.2 |
| 20260901130044 | 59 | 295 | 3.0 | 6.0 | 0.00 | 0.00 | 0.00 | 85 | 1026.5 |
| 20260901124544 | 59 | 293 | 3.0 | 5.0 | 0.00 | 0.00 | 0.00 | 85 | 1026.6 |
| 20260901123050 | 59 | 288 | 2.0 | 6.0 | 0.00 | 0.00 | 0.00 | 85 | 1026.6 |
| 20260901121543 | 60 | 272 | 3.0 | 5.0 | 0.00 | 0.00 | 0.00 | 84 | 1026.7 |
| 20260901120048 | 60 | 283 | 3.0 | 5.0 | 0.00 | 0.00 | 0.00 | 84 | 1026.6 |
| 20260901114544 | 61 | 297 | 3.0 | 5.0 | 0.00 | 0.00 | 0.00 | 84 | 1026.6 |
| 20260901113041 | 61 | 317 | 2.0 | 3.0 | 0.00 | 0.00 | 0.00 | 85 | 1026.7 |
| 20260901111540 | 61 | 338 | 2.0 | 3.0 | 0.00 | 0.00 | 0.00 | 85 | 1026.7 |
| 20260901110037 | 61 | 319 | 1.0 | 3.0 | 0.00 | 0.00 | 0.00 | 85 | 1026.7 |
| 20260901104539 | 61 | 328 | 2.0 | 3.0 | 0.00 | 0.00 | 0.00 | 85 | 1026.6 |
| 20260901103032 | 62 | 306 | 1.0 | 3.0 | 0.00 | 0.00 | 0.00 | 84 | 1026.7 |
| 20260901101532 | 62 | 331 | 3.0 | 5.0 | 0.00 | 0.00 | 0.00 | 84 | 1026.7 |
| 20260901100030 | 62 | 331 | 2.0 | 4.0 | 0.00 | 0.00 | 0.00 | 83 | 1026.7 |
| 20260901094527 | 62 | 326 | 2.0 | 3.0 | 0.00 | 0.00 | 0.00 | 82 | 1026.7 |
| 20260901093024 | 63 | 331 | 2.0 | 4.0 | 0.00 | 0.00 | 0.00 | 81 | 1026.6 |
| 20260901091629 | 62 | 314 | 1.0 | 3.0 | 0.00 | 0.00 | 0.00 | 81 | 1026.6 |
| 20260901090022 | 63 | 328 | 2.0 | 3.0 | 0.00 | 0.00 | 0.00 | 79 | 1026.4 |
| 20260901084519 | 63 | 324 | 2.0 | 4.0 | 0.00 | 0.00 | 0.00 | 77 | 1026.3 |
| 20260901083021 | 64 | 314 | 1.0 | 2.0 | 0.00 | 0.00 | 0.00 | 76 | 1026.2 |
| 20260901081517 | 64 | 295 | 0.0 | 2.0 | 0.00 | 0.00 | 0.00 | 74 | 1025.9 |
| 20260901080017 | 66 | 331 | 0.0 | 2.0 | 0.00 | 0.00 | 0.00 | 72 | 1025.8 |
| 20260901074516 | 66 | 344 | 1.0 | 2.0 | 0.00 | 0.00 | 0.00 | 70 | 1025.7 |
| 20260901073019 | 67 | 89 | 1.0 | 4.0 | 0.00 | 0.00 | 0.00 | 69 | 1025.6 |
| 20260901071515 | 67 | 347 | 1.0 | 5.0 | 0.00 | 0.00 | 0.00 | 69 | 1025.5 |
| 20260901070007 | 68 | 1 | 2.0 | 4.0 | 0.00 | 0.00 | 0.00 | 67 | 1025.5 |
| 20260901064508 | 69 | 6 | 1.0 | 6.0 | 0.00 | 0.00 | 0.00 | 66 | 1025.5 |
| 20260901063007 | 69 | 1 | 3.0 | 7.0 | 0.00 | 0.00 | 0.00 | 65 | 1025.4 |
| 20260901061504 | 70 | 1 | 1.0 | 7.0 | 0.00 | 0.00 | 0.00 | 66 | 1025.4 |
| 20260901060003 | 70 | 178 | 2.0 | 6.0 | 0.00 | 0.00 | 0.00 | 64 | 1025.4 |
| 20260901054600 | 69 | 135 | 1.0 | 6.0 | 0.00 | 0.00 | 0.00 | 66 | 1025.5 |
| 20260901053200 | 69 | 20 | 2.0 | 4.0 | 0.00 | 0.00 | 0.00 | 67 | 1025.5 |
| 20260901051557 | 70 | 135 | 0.0 | 5.0 | 0.00 | 0.00 | 0.00 | 68 | 1025.6 |
| 20260901050056 | 69 | 135 | 1.0 | 3.0 | 0.00 | 0.00 | 0.00 | 69 | 1025.8 |
| 20260901044600 | 69 | 141 | 0.0 | 3.0 | 0.00 | 0.00 | 0.00 | 70 | 1025.9 |
| 20260901043057 | 69 | 331 | 0.0 | 7.0 | 0.00 | 0.00 | 0.00 | 70 | 1026.1 |
| 20260901041549 | 69 | 206 | 0.0 | 2.0 | 0.00 | 0.00 | 0.00 | 69 | 1026.4 |
| 20260901040050 | 70 | 46 | 2.0 | 9.0 | 0.00 | 0.00 | 0.00 | 67 | 1026.5 |
| 20260901034546 | 71 | 334 | 2.0 | 5.0 | 0.00 | 0.00 | 0.00 | 66 | 1026.6 |
| 20260901033044 | 71 | 301 | 4.0 | 8.0 | 0.00 | 0.00 | 0.00 | 66 | 1026.8 |
| 20260901031542 | 72 | 307 | 2.0 | 5.0 | 0.00 | 0.00 | 0.00 | 67 | 1027.0 |
| 20260901030037 | 71 | 345 | 2.0 | 5.0 | 0.00 | 0.00 | 0.00 | 68 | 1027.3 |
| 20260901024535 | 69 | 178 | 0.0 | 4.0 | 0.00 | 0.00 | 0.00 | 70 | 1027.6 |